This demonstration page uses our WeatherBlox Daily Observations layout. Learn more.

Left ArrowRight Arrow

Hourly Observations for March 20, 2020

Temp ( °F °C ) Dew Point ( °F °C ) Humidity (%) Winds ( mph kmh ) Pressure ( in mb ) Visibility ( mi km ) Precip ( " mm )
12:05 am 00:05 Cloudy with Light Snow 34 1 30 -1 87 87 NNW 16 26 30.07 1018 6 10 0.00 0.00
12:07 am 00:07 Cloudy with Light Snow 34 1 30 -1 87 87 NNW 18 30 30.08 1019 4 6 0.00 0.00
12:22 am 00:22 Cloudy with Light Rain 34 1 30 -1 87 87 NNW 21 33 30.09 1019 6 10 0.00 0.00
12:56 am 00:56 Cloudy 32 -0.1 26 -3.1 80 80 N 20 31 30.11 1020 10 16 0.00 0.00
1:56 am 01:56 Cloudy 30 -1 25 -3.7 82 82 NNW 21 33 30.16 1021 10 16 0.00 0.00
2:12 am 02:12 Cloudy 30 -1 23 -5 75 75 N 25 41 30.17 1022 10 16 0.00 0.00
2:26 am 02:26 Cloudy 30 -1 23 -5 75 75 NNW 35 56 30.18 1022 10 16 0.00 0.00
2:41 am 02:41 Cloudy 28 -2 23 -5 80 80 N 29 46 30.22 1023 10 16 0.00 0.00
2:56 am 02:56 Cloudy 29 -1.9 23 -4.9 80 80 N 20 31 30.22 1024 10 16 0.00 0.00
3:41 am 03:41 Cloudy 27 -3 21 -6 80 80 NNW 23 37 30.27 1025 10 16 0.00 0.00
3:56 am 03:56 Cloudy 27 -3 20 -6.5 77 77 NNW 26 43 30.28 1026 10 16 0.00 0.00
4:56 am 04:56 Cloudy 25 -3.7 18 -7.7 74 74 NNW 22 35 30.33 1027 10 16 0.00 0.00
5:26 am 05:26 Mostly Cloudy 25 -4 16 -9 69 69 NNW 18 30 30.36 1028 10 16 0.00 0.00
5:56 am 05:56 Mostly Cloudy 23 -5.1 14 -9.9 69 69 NNW 18 30 30.40 1030 10 16 0.00 0.00
6:56 am 06:56 Clear 21 -6.1 12 -11.2 68 68 NNW 17 28 30.47 1032 10 16 0.00 0.00
7:56 am 07:56 Sunny 20 -6.6 11 -11.9 66 66 NNW 17 28 30.47 1032 10 16 0.00 0.00
8:56 am 08:56 Sunny 22 -5.8 10 -12.3 61 61 NNW 20 31 30.52 1034 10 16 0.00 0.00
9:56 am 09:56 Sunny 24 -4.7 11 -11.9 58 58 N 13 20 30.58 1036 10 16 0.00 0.00
10:56 am 10:56 Sunny 26 -3.5 12 -11.3 55 55 N 15 24 30.62 1037 10 16 0.00 0.00
11:56 am 11:56 Sunny 27 -2.6 12 -11.1 52 52 N 14 22 30.63 1037 10 16 0.00 0.00
12:56 pm 12:56 Sunny 28 -2.2 12 -11 51 51 N 17 28 30.64 1038 10 16 0.00 0.00
1:03 pm 13:03 Sunny 28 -2 14 -10 55 55 NNW 16 26 30.64 1038 10 16 0.00 0.00
1:14 pm 13:14 Sunny 28 -2 14 -10 55 55 N 18 30 30.63 1037 10 16 0.00 0.00
1:56 pm 13:56 Sunny 30 -1.3 14 -9.9 52 52 N 20 31 30.62 1037 10 16 0.00 0.00
2:22 pm 14:22 Sunny 30 -1 16 -9 55 55 NNW 13 20 30.60 1036 10 16 0.00 0.00
2:56 pm 14:56 Sunny 31 -0.7 15 -9.6 51 51 NNW 15 24 30.60 1036 10 16 0.00 0.00
3:56 pm 15:56 Sunny 31 -0.7 16 -8.9 54 54 N 12 19 30.60 1036 10 16 0.00 0.00
4:56 pm 16:56 Sunny 31 -0.4 15 -9.3 51 51 N 13 20 30.60 1036 10 16 0.00 0.00
5:56 pm 17:56 Sunny 30 -1 13 -10.4 49 49 N 12 19 30.62 1037 10 16 0.00 0.00
6:56 pm 18:56 Sunny 28 -2 15 -9.6 56 56 N 9 15 30.62 1037 10 16 0.00 0.00
7:56 pm 19:56 Clear 26 -3.2 14 -9.9 60 60 N 9 15 30.62 1037 10 16 0.00 0.00
8:56 pm 20:56 Clear 26 -3.5 14 -9.9 62 62 NNW 8 13 30.64 1038 10 16 0.00 0.00
9:56 pm 21:56 Clear 24 -4.4 14 -10 65 65 NE 7 11 30.65 1038 10 16 0.00 0.00
10:56 pm 22:56 Clear 24 -4.4 12 -11 60 60 NNE 7 11 30.66 1038 10 16 0.00 0.00
11:56 pm 23:56 Clear 23 -5.2 13 -10.4 67 67 NNE 3 6 30.65 1038 10 16 0.00 0.00

Powered by AerisWeather